Location: Sumpter
(44.7457°N, 118.2022°W)
Time: 08:48:26
(UTC-07:00)

ISS - Pass Details

Date: 26 February 2019
Orbit: 406 x 411 km, 51.6° (Epoch: 21 March)

Event Time Altitude Azimuth Distance (km) Brightness Sun altitude
Exits shadow 05:51:26 10° 248° (WSW) 1,485 -1.5 -8.6°
Reaches altitude 10° 05:51:30 10° 248° (WSW) 1,458 -1.6 -8.6°
Maximum altitude 05:54:45 68° 332° (NNW) 439 -3.8 -8.0°
Drops below altitude 10° 05:58:02 10° 57° (ENE) 1,466 -0.1 -7.5°
Sets 06:00:08 0° 60° (ENE) 2,329 1.0 -7.1°
